GLOBALSTAR M066

Last updated on Sun Jun 21 2026 00:03:18 GMT+0000 (Coordinated Universal Time)

1 32265U 07048C 26170.84212878 -.00000143 00000+0 -41006-3 0 9996 2 32265 51.9606 50.2909 0005536 49.6386 29.5568 12.30387322860557
UTC large
Height (km)
Speed (km/s)
/
Latitude / Longitude
Inclination (degrees)
Orbital Period (minutes)
Azimuth
Elevation
Range (km)
Doppler Factor

Next 0 passes for location: London (51.5072 / 0.1276)

No passes found over London.
GLOBALSTAR M066